Wind_Speed
28 29 28 26 25 24 24 23 20 19 17 22 30 32 30 28 30 33 34 32 31 32 33 36 36 33 31 31 31 30 31 32 33 35 37 38 39 40 39 37 34 33 32 33
28 27 24 25 26 25 26 28 27 26 23 26 31 33 33 34 33 33 35 37 36 35 36 40 38 36 34 34 33 32 33 34 36 38 39 40 42 43 43 40 38 37 37 37
24 20 21 24 26 26 27 28 29 29 29 32 34 37 38 39 36 35 37 39 40 40 40 40 41 40 38 37 35 34 35 37 39 40 42 43 45 45 44 43 41 40 40 39
21 20 21 22 23 25 27 26 28 30 31 33 32 36 35 34 31 30 33 36 38 37 38 38 40 40 39 37 36 35 37 38 40 42 44 46 47 47 46 45 43 43 43 42
19 19 22 22 21 23 23 23 24 25 29 32 33 35 35 29 29 29 30 34 36 35 35 36 36 37 37 36 35 36 37 39 41 43 44 46 47 47 46 46 45 45 44 44
21 19 20 20 20 21 21 21 23 24 25 29 27 28 31 27 26 26 27 32 34 33 34 33 33 34 34 34 35 37 38 39 41 43 44 45 46 46 46 46 46 46 46 45
23 22 22 21 20 20 20 20 20 20 21 22 18 21 22 18 20 23 26 31 33 33 34 35 34 32 32 34 35 36 38 39 40 42 43 44 45 45 45 45 45 46 46 45
24 24 23 23 22 20 21 20 20 18 17 17 15 16 16 18 20 24 29 33 33 34 36 35 34 31 31 33 35 36 37 38 39 41 42 43 44 44 44 44 45 45 46 47
24 21 20 24 24 23 21 22 19 20 20 23 22 20 18 20 23 25 28 29 28 29 29 30 32 31 32 34 35 36 37 38 39 41 42 43 43 43 44 46 46 46 48 49
29 26 21 19 24 26 23 21 21 23 24 25 23 20 19 21 22 24 24 24 25 28 28 28 31 31 33 33 35 37 37 38 39 41 42 42 43 44 45 46 47 48 49 51
33 33 28 21 23 25 24 22 23 25 24 23 22 18 18 21 24 24 23 25 29 32 33 33 32 32 33 34 36 37 38 39 40 41 42 43 45 46 47 48 49 50 52 54
35 36 35 31 25 24 25 23 22 26 27 27 27 25 23 27 26 26 28 33 39 40 39 36 34 33 33 35 37 38 39 41 42 43 44 46 47 48 50 51 52 53 55 56
40 39 38 35 31 27 26 26 27 27 28 28 27 25 24 29 31 32 35 38 39 40 37 35 35 35 36 37 39 40 42 43 45 46 47 49 50 51 53 53 54 56 57 57
38 40 39 34 26 26 31 31 30 29 29 30 29 28 29 33 34 34 36 38 37 36 33 35 38 40 41 42 42 44 45 46 48 49 50 51 52 53 55 56 56 57 59 61
39 41 41 40 37 33 29 29 29 30 31 32 32 30 33 38 40 41 43 43 44 45 46 46 46 46 46 46 46 46 47 49 50 51 52 52 53 55 55 57 58 60 62 64
39 40 41 41 40 40 40 37 35 33 31 33 35 35 43 47 48 48 48 48 49 50 52 52 51 50 49 48 48 48 48 49 50 51 52 52 53 55 57 58 59 61 61 61
37 38 39 40 39 39 42 41 40 41 40 41 42 45 49 49 48 48 48 48 49 50 51 52 51 50 48 48 47 48 48 49 49 50 51 52 53 55 57 58 59 60 60 58
35 36 36 37 37 39 36 36 39 42 45 45 46 48 48 46 45 45 47 48 49 49 50 50 50 49 48 48 47 47 47 47 48 49 50 51 53 55 57 58 58 57 55 52
34 34 34 34 34 32 30 35 38 40 43 43 44 44 44 44 45 45 46 46 47 47 47 48 48 47 47 46 45 44 44 45 45 47 49 50 53 55 55 55 54 52 50 48
30 31 31 31 31 29 33 36 37 36 39 39 39 39 39 40 42 43 43 44 44 44 44 44 44 44 43 42 41 42 41 42 44 46 49 51 53 53 52 51 49 48 46 45
24 25 27 28 30 31 34 36 36 37 40 38 37 37 37 38 39 40 40 41 41 40 40 40 39 39 38 37 38 38 39 41 43 47 48 49 49 48 47 46 44 43 43 43
24 24 24 26 28 33 34 34 34 35 36 36 35 35 35 36 36 36 36 36 36 35 35 34 33 32 32 33 34 35 37 40 42 43 43 44 43 42 42 42 42 42 41 40
24 25 25 25 27 29 30 30 31 32 33 33 33 33 33 33 33 32 32 31 30 29 29 28 27 28 29 30 32 34 36 37 37 37 37 37 37 38 39 39 39 38 37 35
23 22 24 26 28 28 27 28 28 29 29 29 29 29 29 29 28 27 26 25 25 24 24 24 24 25 26 28 30 30 30 30 31 32 33 34 35 36 36 36 35 34 32 30
21 20 21 24 26 26 26 26 25 25 25 24 24 23 22 21 21 21 20 19 19 19 19 19 20 21 23 23 24 25 27 28 29 31 32 33 34 34 33 32 31 28 26 24
20 20 21 22 23 23 23 22 22 21 20 19 18 17 17 15 14 14 14 13 14 15 16 17 17 18 19 20 22 24 26 28 29 31 32 32 32 31 29 27 25 23 22 20
Wind_Direction
239 240 242 244 244 241 237 233 238 253 255 245 251 257 256 247 249 259 265 266 268 272 274 276 281 286 288 293 293 291 291 291 292 293 294 295 295 296 294 294 292 290 288 285
238 240 242 242 241 241 238 235 231 229 229 234 240 248 254 252 249 252 261 267 268 267 268 272 276 283 287 288 289 287 286 287 287 289 291 292 292 293 294 293 293 293 290 288
237 234 238 239 239 241 242 243 240 237 235 236 240 247 252 258 261 260 259 264 269 271 271 271 274 280 283 285 285 283 283 283 284 286 287 288 290 290 291 291 291 292 292 290
230 224 232 241 242 243 247 249 247 244 243 245 248 258 263 271 275 272 269 267 269 272 274 272 272 276 279 281 280 281 281 282 283 284 285 285 286 288 289 290 291 291 292 291
225 227 233 242 245 244 248 247 249 251 253 254 251 256 262 264 267 270 274 271 271 275 274 272 270 272 275 277 278 279 279 280 281 283 283 284 285 287 288 289 290 290 291 291
225 226 238 241 246 249 248 249 251 252 255 261 268 270 272 267 264 268 268 265 269 273 273 272 271 270 271 273 275 277 278 279 280 282 283 284 286 287 287 288 290 290 290 291
233 228 234 241 242 249 251 251 254 259 264 276 291 287 291 286 264 253 252 256 261 266 271 275 275 271 269 271 273 274 276 278 280 281 283 283 285 286 287 288 289 290 291 291
238 239 236 242 248 248 250 254 252 249 253 266 268 276 282 269 253 245 247 256 265 269 270 271 270 269 268 269 271 273 275 277 279 280 281 282 284 285 286 287 288 289 291 293
231 241 254 258 259 254 242 245 254 259 257 254 250 246 254 278 280 275 269 269 270 270 270 268 267 267 266 267 270 273 274 276 277 279 280 281 283 284 285 285 287 289 291 293
223 220 219 238 250 256 253 242 240 247 256 262 264 266 270 263 259 259 258 261 262 261 266 269 268 267 267 268 270 272 274 276 277 279 280 282 283 285 285 286 287 290 292 293
226 225 219 213 231 240 251 254 245 244 247 256 264 263 265 268 260 257 258 263 265 267 273 274 270 270 269 270 271 272 274 276 279 280 282 283 284 286 287 288 289 291 292 293
232 232 228 221 224 242 246 246 251 255 255 252 254 255 260 270 268 262 261 264 268 271 274 276 276 275 274 274 274 275 277 278 280 282 284 285 286 288 288 289 290 290 292 293
235 236 237 233 230 234 244 243 239 246 253 254 255 261 263 266 265 263 264 265 266 269 268 273 280 281 279 278 278 278 280 281 283 284 285 286 288 289 290 290 291 292 292 293
240 242 241 237 231 234 234 235 238 241 246 252 254 256 257 262 263 262 262 264 266 272 275 279 283 283 281 280 280 281 282 283 285 286 286 288 289 290 291 291 291 292 292 293
243 243 242 239 229 230 237 237 234 231 231 239 245 252 258 260 261 261 263 265 269 276 283 285 286 284 283 282 282 283 284 284 285 286 287 289 290 290 291 291 291 291 290 291
245 245 245 244 240 235 237 239 240 241 245 250 256 262 260 260 261 265 269 272 275 279 282 284 284 284 284 284 284 284 283 283 284 285 286 288 290 290 290 290 290 290 291 293
253 250 249 249 248 246 245 246 249 251 252 253 256 258 263 267 270 273 275 276 277 279 280 282 284 285 285 285 284 284 284 284 284 285 286 288 289 289 290 290 290 291 293 295
254 254 252 251 250 250 253 252 251 253 255 258 260 265 269 273 275 275 276 277 278 280 282 283 284 285 286 286 285 285 284 284 285 285 286 287 287 288 288 289 290 291 293 294
253 253 253 252 252 254 251 252 255 256 259 261 265 268 271 273 275 275 277 278 280 281 282 283 284 285 285 286 286 285 284 283 284 285 286 286 286 287 287 289 291 293 296 300
254 253 252 251 250 244 244 249 255 259 261 265 268 271 273 273 275 277 278 279 281 282 283 284 284 285 285 285 285 284 283 282 283 284 286 286 286 286 289 292 296 299 301 303
255 255 252 251 249 244 247 252 256 258 264 271 273 274 274 274 276 278 280 281 282 284 284 285 285 285 286 284 283 283 284 283 283 284 284 286 288 292 295 298 301 302 303 304
257 258 254 251 248 247 252 255 258 264 269 272 274 275 276 276 277 279 281 282 284 285 285 286 286 287 287 286 284 284 284 285 285 285 288 291 295 298 300 301 303 304 305 306
253 253 253 254 255 256 258 261 263 266 269 272 274 275 276 277 279 280 281 282 284 285 287 288 288 289 288 287 284 284 285 287 291 295 298 301 303 304 304 305 306 307 307 308
254 253 253 254 258 260 263 265 267 268 270 273 274 275 275 277 279 280 281 282 283 286 288 290 290 290 289 289 290 292 295 299 302 303 304 304 305 306 307 308 309 309 310 312
259 257 254 255 259 262 264 266 268 270 273 273 273 274 274 275 279 280 282 283 286 289 291 292 295 296 297 298 301 304 306 306 307 307 308 309 310 311 312 313 313 313 314 316
259 259 257 257 258 261 264 265 267 271 270 270 270 271 271 275 281 282 284 287 290 294 296 298 302 305 308 310 310 310 311 312 313 313 314 315 316 317 318 318 319 319 319 321
Height
5826 5829 5832 5836 5838 5841 5843 5846 5851 5856 5859 5861 5860 5859 5861 5862 5862 5861 5860 5860 5861 5859 5857 5852 5850 5851 5852 5852 5852 5851 5849 5849 5848 5846 5845 5843 5841 5839 5838 5836 5834 5832 5830 5828
5820 5824 5828 5829 5832 5834 5837 5840 5843 5848 5852 5854 5854 5853 5853 5854 5855 5854 5855 5854 5855 5854 5852 5848 5845 5845 5845 5846 5846 5845 5844 5843 5841 5840 5838 5836 5834 5832 5831 5829 5827 5825 5823 5820
5815 5820 5821 5824 5826 5829 5832 5835 5838 5841 5844 5845 5845 5845 5845 5846 5848 5848 5847 5848 5848 5847 5845 5841 5838 5840 5840 5839 5838 5838 5837 5835 5834 5832 5831 5828 5826 5824 5823 5821 5819 5817 5815 5812
5811 5814 5818 5819 5822 5824 5827 5829 5831 5833 5835 5837 5839 5838 5839 5839 5839 5839 5839 5839 5839 5839 5836 5835 5834 5833 5832 5832 5831 5830 5829 5828 5826 5824 5823 5820 5817 5815 5814 5812 5810 5808 5805 5803
5806 5810 5812 5815 5817 5819 5821 5823 5825 5827 5828 5829 5830 5830 5832 5834 5834 5834 5834 5832 5831 5831 5829 5827 5827 5826 5825 5824 5823 5822 5821 5819 5818 5816 5814 5811 5808 5806 5804 5802 5800 5797 5795 5793
5801 5806 5808 5810 5812 5813 5815 5817 5819 5820 5822 5822 5824 5824 5823 5827 5828 5829 5829 5825 5823 5822 5820 5819 5819 5818 5817 5816 5815 5814 5812 5811 5809 5807 5805 5802 5799 5797 5795 5793 5790 5787 5785 5783
5797 5800 5803 5806 5808 5809 5810 5812 5814 5815 5816 5817 5820 5818 5819 5820 5822 5823 5821 5818 5815 5814 5812 5811 5811 5810 5809 5807 5806 5805 5803 5802 5800 5798 5796 5793 5791 5788 5786 5783 5781 5777 5774 5772
5792 5795 5799 5801 5802 5804 5805 5807 5810 5812 5814 5816 5818 5818 5817 5815 5814 5814 5813 5811 5810 5808 5805 5804 5802 5801 5800 5799 5797 5796 5795 5793 5792 5790 5787 5785 5782 5779 5776 5773 5771 5767 5763 5761
5787 5792 5795 5795 5797 5799 5800 5802 5805 5807 5807 5808 5810 5811 5813 5810 5807 5806 5805 5803 5802 5799 5796 5795 5793 5792 5791 5790 5789 5788 5787 5785 5783 5781 5778 5776 5773 5770 5767 5764 5761 5757 5753 5749
5779 5784 5788 5792 5793 5792 5795 5797 5800 5801 5802 5802 5804 5806 5808 5804 5800 5798 5796 5794 5792 5789 5788 5786 5785 5785 5784 5782 5781 5779 5778 5776 5774 5772 5769 5766 5764 5761 5757 5754 5750 5746 5742 5737
5772 5776 5781 5786 5788 5789 5790 5791 5792 5794 5796 5798 5799 5803 5799 5795 5793 5791 5789 5787 5783 5780 5779 5777 5776 5777 5776 5774 5772 5770 5769 5767 5764 5762 5759 5757 5753 5750 5747 5743 5739 5734 5730 5725
5764 5768 5771 5777 5781 5783 5784 5786 5788 5788 5788 5789 5790 5795 5792 5788 5784 5783 5781 5778 5774 5772 5771 5770 5769 5769 5767 5765 5763 5761 5760 5757 5755 5752 5749 5746 5743 5739 5735 5731 5727 5722 5717 5712
5755 5759 5764 5768 5774 5777 5777 5778 5780 5781 5781 5781 5783 5787 5784 5778 5774 5774 5772 5770 5765 5763 5762 5762 5761 5760 5758 5756 5754 5752 5750 5747 5744 5741 5738 5735 5731 5727 5723 5718 5714 5709 5703 5698
5748 5751 5756 5761 5767 5766 5766 5768 5770 5773 5774 5774 5775 5777 5773 5765 5763 5764 5763 5761 5757 5755 5751 5752 5752 5751 5749 5747 5745 5742 5739 5736 5733 5730 5726 5723 5719 5715 5710 5705 5700 5695 5690 5684
5738 5741 5745 5749 5754 5755 5756 5758 5759 5761 5762 5763 5764 5764 5760 5753 5754 5754 5753 5753 5751 5748 5744 5743 5742 5740 5738 5736 5733 5731 5728 5724 5721 5717 5714 5710 5706 5702 5697 5692 5687 5681 5676 5670
5728 5732 5735 5738 5743 5746 5747 5749 5751 5751 5752 5753 5754 5754 5745 5744 5744 5745 5746 5745 5743 5740 5736 5733 5731 5729 5727 5724 5721 5719 5715 5712 5708 5705 5701 5697 5693 5689 5684 5679 5674 5668 5662 5656
5719 5723 5726 5729 5733 5734 5738 5741 5742 5743 5743 5741 5740 5737 5734 5735 5736 5737 5736 5734 5732 5729 5726 5723 5720 5717 5714 5712 5709 5706 5703 5699 5696 5693 5689 5685 5681 5677 5672 5666 5661 5656 5650 5644
5711 5713 5716 5719 5722 5724 5731 5728 5729 5731 5729 5729 5728 5726 5726 5727 5726 5726 5724 5722 5720 5718 5715 5711 5708 5705 5703 5700 5697 5694 5690 5687 5684 5681 5677 5673 5669 5665 5660 5654 5649 5643 5638 5633
5702 5705 5707 5710 5713 5716 5718 5716 5718 5720 5717 5718 5719 5718 5718 5717 5715 5714 5713 5711 5709 5706 5703 5700 5697 5694 5690 5687 5685 5682 5679 5676 5673 5670 5666 5662 5658 5653 5648 5642 5637 5631 5626 5620
5694 5696 5700 5702 5705 5708 5706 5706 5708 5711 5707 5709 5709 5709 5708 5707 5705 5703 5702 5699 5697 5694 5692 5689 5685 5682 5679 5677 5674 5671 5668 5666 5663 5659 5655 5651 5646 5641 5636 5630 5625 5620 5615 5609
5688 5689 5692 5694 5696 5697 5696 5698 5700 5702 5699 5700 5699 5699 5698 5696 5695 5693 5691 5688 5686 5684 5681 5678 5675 5672 5670 5667 5665 5662 5659 5656 5653 5649 5644 5640 5634 5629 5625 5619 5614 5609 5604 5599
5683 5684 5685 5686 5687 5689 5688 5690 5692 5692 5691 5690 5689 5689 5688 5686 5684 5683 5681 5679 5677 5674 5671 5669 5666 5664 5661 5659 5656 5653 5650 5647 5643 5638 5634 5629 5624 5619 5615 5610 5604 5599 5593 5588
5678 5679 5679 5680 5681 5680 5681 5682 5683 5683 5683 5682 5681 5680 5679 5677 5676 5674 5673 5671 5669 5666 5664 5662 5659 5657 5654 5652 5649 5646 5642 5639 5634 5629 5625 5620 5615 5610 5605 5600 5595 5589 5584 5579
5672 5673 5674 5674 5673 5674 5674 5675 5675 5675 5675 5674 5673 5672 5670 5669 5668 5667 5665 5663 5662 5660 5658 5655 5653 5651 5648 5645 5642 5638 5634 5630 5626 5622 5617 5612 5607 5601 5596 5590 5585 5580 5575 5570
5667 5668 5668 5668 5668 5668 5668 5668 5668 5668 5667 5667 5666 5665 5664 5663 5662 5661 5659 5658 5656 5655 5653 5651 5648 5646 5643 5640 5636 5633 5629 5624 5620 5615 5610 5604 5599 5593 5587 5582 5576 5572 5567 5563
5661 5662 5662 5662 5662 5662 5662 5662 5662 5662 5661 5661 5660 5660 5659 5658 5657 5656 5655 5654 5653 5651 5649 5647 5645 5642 5639 5636 5632 5628 5623 5619 5613 5608 5602 5596 5590 5585 5579 5574 5569 5564 5561 5557